IW8PDD-3 Weather Reports


time (UTC)temp
C
wind
direction
speed
KPH
gust
KPH
rain 1hr
cm
rain 24hr
cm
rain mn
cm
humidity
%
barometer
mb
20260504050504 16 0.0 0.0 0.00 0.00 0.00 52 1020.1
20260504044501 16 0.0 0.0 0.00 0.00 0.00 51 1019.9
20260504042457 15 0.0 0.0 0.00 0.00 0.00 51 1019.7
20260504040454 15 0.0 0.0 0.00 0.00 0.00 51 1019.7
20260504034450 15 0.0 0.0 0.00 0.00 0.00 51 1019.8
20260504032447 15 0.0 0.0 0.00 0.00 0.00 51 1019.8
20260504024440 15 0.0 0.0 0.00 0.00 0.00 50 1019.7
20260504022437 15 0.0 0.0 0.00 0.00 0.00 50 1019.8
20260504020433 15 0.0 0.0 0.00 0.00 0.00 50 1019.8
20260504002416 16 0.0 0.0 0.00 0.00 0.00 48 1020.0
20260504000412 16 0.0 0.0 0.00 0.00 0.00 48 1020.0
20260503234409 16 0.0 0.0 0.00 0.00 0.00 48 1020.1
20260503232405 16 0.0 0.0 0.00 0.00 0.00 48 1020.4
20260503230402 16 0.0 0.0 0.00 0.00 0.00 48 1020.4
20260503224358 16 0.0 0.0 0.00 0.00 0.00 48 1020.5
20260503222355 16 0.0 0.0 0.00 0.00 0.00 48 1020.5
20260503220351 17 0.0 0.0 0.00 0.00 0.00 49 1020.4
20260503214348 17 0.0 0.0 0.00 0.00 0.00 51 1020.7
20260503212345 17 0.0 0.0 0.00 0.00 0.00 52 1020.6
20260503210341 17 0.0 0.0 0.00 0.00 0.00 51 1020.6
20260503204338 17 0.0 0.0 0.00 0.00 0.00 52 1020.5
20260503202334 17 0.0 0.0 0.00 0.00 0.00 54 1020.5
20260503200331 18 0.0 0.0 0.00 0.00 0.00 55 1020.6
20260503194328 18 0.0 0.0 0.00 0.00 0.00 55 1020.7
20260503192324 18 0.0 0.0 0.00 0.00 0.00 54 1020.7
20260503190320 18 0.0 0.0 0.00 0.00 0.00 54 1020.4
20260503184317 18 0.0 0.0 0.00 0.00 0.00 54 1020.3
20260503182313 18 0.0 0.0 0.00 0.00 0.00 53 1020.2
20260503180310 19 0.0 0.0 0.00 0.00 0.00 51 1020.0
20260503174306 20 0.0 0.0 0.00 0.00 0.00 51 1019.9
20260503172305 20 0.0 0.0 0.00 0.00 0.00 50 1019.6
20260503170259 21 0.0 0.0 0.00 0.00 0.00 49 1019.7
20260503150239 30 0.0 0.0 0.00 0.00 0.00 40 1019.6
20260503140228 28 0.0 0.0 0.00 0.00 0.00 46 1020.0
20260503130218 23 0.0 0.0 0.00 0.00 0.00 50 1020.4
20260503120207 22 0.0 0.0 0.00 0.00 0.00 52 1021.0
20260503110157 20 0.0 0.0 0.00 0.00 0.00 56 1021.1
20260503100147 19 0.0 0.0 0.00 0.00 0.00 56 1021.4
20260503090136 18 0.0 0.0 0.00 0.00 0.00 55 1021.5
20260503070116 17 0.0 0.0 0.00 0.00 0.00 55 1021.7
20260503060105 17 0.0 0.0 0.00 0.00 0.00 57 1021.4
20260503054102 16 0.0 0.0 0.00 0.00 0.00 57 1021.5
20260503052058 16 0.0 0.0 0.00 0.00 0.00 57 1021.4